EZY34CT LDDU-EGKK

Flight info

Callsign EZY34CT
Flight time 2h 30m
Altitude 36000
Route AMUGO DCT UVODI DCT SAL DCT ROTAR DCT BORMI DCT RESIA DCT ELMUR DCT RIPUS DCT DITON DCT HOC DCT LUL DCT RLP DCT ROTSI DCT KOTUN DCT NINAL DCT KESAX DCT KUNAV
Aircraft A320/M-SDE2E3FGHIJ1RWXYZ/LB1

Departure

Time 2026-05-07 18:42
Airport Dubrovnik Ruđer Bošković Airport (LDDU)

Arrival

Time 2026-05-07 21:12
Airport London Gatwick Airport (EGKK)
Time Latitude Longitude Altitude Speed Heading
2026-05-07 18:24 42.56125 18.26207 518 ft 0 kts 215°
2026-05-07 18:25 42.56124 18.26207 518 ft 0 kts 215°
2026-05-07 18:32 42.56125 18.26208 518 ft 0 kts 216°
2026-05-07 18:32 42.56126 18.26209 518 ft 0 kts 215°
2026-05-07 18:32 42.56128 18.26210 518 ft 0 kts 214°
2026-05-07 18:32 42.56128 18.26211 518 ft 0 kts 213°
2026-05-07 18:33 42.56130 18.26212 518 ft 0 kts 213°
2026-05-07 18:33 42.56131 18.26213 519 ft 0 kts 214°
2026-05-07 18:33 42.56132 18.26214 519 ft 0 kts 214°
2026-05-07 18:33 42.56133 18.26215 519 ft 0 kts 214°
2026-05-07 18:34 42.56134 18.26216 519 ft 0 kts 214°
2026-05-07 18:34 42.56135 18.26217 519 ft 0 kts 214°
2026-05-07 18:34 42.56136 18.26218 519 ft 0 kts 214°
2026-05-07 18:35 42.56135 18.26218 519 ft 0 kts 214°
2026-05-07 18:38 42.56132 18.26215 518 ft 0 kts 231°
2026-05-07 18:38 42.56144 18.26198 519 ft 5 kts 321°
2026-05-07 18:38 42.56185 18.26153 520 ft 10 kts 322°
2026-05-07 18:38 42.56243 18.26078 521 ft 11 kts 301°
2026-05-07 18:39 42.56285 18.25983 522 ft 11 kts 301°
2026-05-07 18:39 42.56328 18.25887 523 ft 11 kts 299°
2026-05-07 18:39 42.56366 18.25782 523 ft 13 kts 295°
2026-05-07 18:39 42.56416 18.25646 522 ft 17 kts 297°
2026-05-07 18:40 42.56477 18.25491 519 ft 19 kts 298°
2026-05-07 18:40 42.56551 18.25310 511 ft 24 kts 298°
2026-05-07 18:40 42.56638 18.25098 505 ft 26 kts 300°
2026-05-07 18:40 42.56727 18.24882 503 ft 26 kts 297°
2026-05-07 18:41 42.56809 18.24692 505 ft 18 kts 326°
2026-05-07 18:41 42.56931 18.24671 505 ft 19 kts 30°
2026-05-07 18:41 42.56900 18.24895 503 ft 52 kts 116°
2026-05-07 18:41 42.56628 18.25594 520 ft 112 kts 118°
2026-05-07 18:42 42.56172 18.26733 540 ft 159 kts 117°
2026-05-07 18:42 42.55650 18.28136 866 ft 174 kts 115°
2026-05-07 18:42 42.55093 18.29587 1546 ft 173 kts 116°
2026-05-07 18:42 42.54530 18.30980 2223 ft 171 kts 117°
2026-05-07 18:43 42.53936 18.32466 2558 ft 185 kts 117°
2026-05-07 18:43 42.53075 18.33824 2836 ft 203 kts 148°
2026-05-07 18:43 42.51624 18.34217 3060 ft 228 kts 189°
2026-05-07 18:43 42.50230 18.33202 3555 ft 240 kts 227°
2026-05-07 18:44 42.49227 18.31412 4273 ft 240 kts 228°
2026-05-07 18:44 42.47896 18.30091 4929 ft 239 kts 200°
2026-05-07 18:44 42.46355 18.29210 5386 ft 251 kts 211°
2026-05-07 18:44 42.45173 18.27406 5717 ft 271 kts 246°
2026-05-07 18:45 42.44972 18.24840 6305 ft 280 kts 281°
2026-05-07 18:45 42.45808 18.22498 6994 ft 285 kts 303°
2026-05-07 18:45 42.46886 18.20251 7665 ft 286 kts 296°
2026-05-07 18:45 42.47708 18.17805 8290 ft 288 kts 287°
2026-05-07 18:46 42.48312 18.15227 8939 ft 288 kts 281°
2026-05-07 18:46 42.48773 18.12565 9590 ft 290 kts 279°
2026-05-07 18:46 42.49146 18.09885 10247 ft 294 kts 278°
2026-05-07 18:46 42.49481 18.07121 10736 ft 305 kts 278°
2026-05-07 18:47 42.49800 18.04253 11214 ft 316 kts 278°
2026-05-07 18:47 42.50116 18.01310 11811 ft 317 kts 277°
2026-05-07 18:47 42.50432 17.98346 12431 ft 318 kts 277°
2026-05-07 18:47 42.50740 17.95411 13052 ft 317 kts 276°
2026-05-07 18:48 42.51040 17.92481 13718 ft 317 kts 276°
2026-05-07 18:48 42.51339 17.89550 14405 ft 315 kts 276°
2026-05-07 18:48 42.51634 17.86606 14988 ft 314 kts 275°
2026-05-07 18:48 42.51927 17.83665 15521 ft 318 kts 276°
2026-05-07 18:49 42.52222 17.80702 16069 ft 321 kts 276°
2026-05-07 18:49 42.52520 17.77718 16636 ft 323 kts 275°
2026-05-07 18:49 42.52820 17.74690 17170 ft 325 kts 275°
2026-05-07 18:49 42.53115 17.71668 17694 ft 327 kts 275°
2026-05-07 18:50 42.53415 17.68595 18244 ft 329 kts 275°
2026-05-07 18:50 42.53712 17.65560 18768 ft 330 kts 275°
2026-05-07 18:50 42.54014 17.62456 19250 ft 332 kts 276°
2026-05-07 18:50 42.54548 17.59421 19729 ft 338 kts 287°
2026-05-07 18:51 42.55549 17.56494 20222 ft 343 kts 297°
2026-05-07 18:51 42.56903 17.53829 20730 ft 346 kts 302°
2026-05-07 18:51 42.58342 17.51223 21219 ft 348 kts 302°
2026-05-07 18:51 42.59801 17.48596 21675 ft 349 kts 303°
2026-05-07 18:52 42.61246 17.45992 22113 ft 351 kts 303°
2026-05-07 18:52 42.62734 17.43303 22561 ft 353 kts 303°
2026-05-07 18:52 42.64190 17.40669 23000 ft 354 kts 303°
2026-05-07 18:52 42.65684 17.37959 23438 ft 356 kts 303°
2026-05-07 18:53 42.67155 17.35289 23850 ft 358 kts 302°
2026-05-07 18:53 42.68643 17.32577 24310 ft 359 kts 302°
2026-05-07 18:53 42.70128 17.29877 24763 ft 359 kts 302°
2026-05-07 18:53 42.71624 17.27150 25177 ft 360 kts 301°
2026-05-07 18:54 42.73114 17.24426 25572 ft 362 kts 301°
2026-05-07 18:54 42.74615 17.21678 25998 ft 362 kts 302°
2026-05-07 18:54 42.76104 17.18954 26405 ft 363 kts 302°
2026-05-07 18:54 42.77622 17.16174 26823 ft 363 kts 301°
2026-05-07 18:55 42.79128 17.13416 27171 ft 365 kts 302°
2026-05-07 18:55 42.80632 17.10654 27498 ft 366 kts 301°
2026-05-07 18:55 42.82144 17.07876 27838 ft 368 kts 301°
2026-05-07 18:55 42.83661 17.05085 28216 ft 368 kts 302°
2026-05-07 18:56 42.85182 17.02287 28578 ft 369 kts 301°
2026-05-07 18:56 42.86718 16.99458 28906 ft 370 kts 301°
2026-05-07 18:56 42.88224 16.96679 29241 ft 370 kts 301°
2026-05-07 18:56 42.89773 16.93824 29543 ft 371 kts 301°
2026-05-07 18:57 42.91301 16.91003 29833 ft 372 kts 301°
2026-05-07 18:57 42.92839 16.88160 30114 ft 374 kts 301°
2026-05-07 18:57 42.94378 16.85309 30398 ft 374 kts 301°
2026-05-07 18:57 42.95906 16.82478 30670 ft 375 kts 301°
2026-05-07 18:58 42.97469 16.79583 30942 ft 376 kts 301°
2026-05-07 18:58 42.99011 16.76721 31217 ft 377 kts 301°
2026-05-07 18:58 43.00559 16.73850 31480 ft 377 kts 301°
2026-05-07 18:58 43.02124 16.70936 31723 ft 379 kts 300°
2026-05-07 18:59 43.03665 16.68064 31944 ft 380 kts 301°
2026-05-07 18:59 43.05230 16.65144 32139 ft 382 kts 301°
2026-05-07 18:59 43.06798 16.62221 32365 ft 383 kts 301°
2026-05-07 18:59 43.08378 16.59271 32590 ft 384 kts 300°
2026-05-07 19:00 43.09943 16.56344 32763 ft 385 kts 300°
2026-05-07 19:00 43.11585 16.53431 32978 ft 388 kts 303°
2026-05-07 19:00 43.13314 16.50591 33191 ft 389 kts 303°
2026-05-07 19:00 43.15065 16.47745 33367 ft 390 kts 303°
2026-05-07 19:01 43.16809 16.44906 33515 ft 392 kts 303°
2026-05-07 19:01 43.18571 16.42036 33671 ft 393 kts 304°
2026-05-07 19:01 43.20315 16.39199 33844 ft 394 kts 303°
2026-05-07 19:01 43.22068 16.36340 34057 ft 393 kts 303°
2026-05-07 19:02 43.23845 16.33440 34270 ft 392 kts 302°
2026-05-07 19:02 43.25591 16.30585 34432 ft 393 kts 302°
2026-05-07 19:02 43.27337 16.27727 34557 ft 394 kts 303°
2026-05-07 19:02 43.29094 16.24851 34700 ft 394 kts 302°
2026-05-07 19:03 43.30832 16.21999 34845 ft 394 kts 302°
2026-05-07 19:03 43.32589 16.19110 34973 ft 395 kts 302°
2026-05-07 19:03 43.34364 16.16198 35106 ft 395 kts 302°
2026-05-07 19:03 43.36113 16.13319 35239 ft 395 kts 302°
2026-05-07 19:04 43.37877 16.10414 35368 ft 395 kts 302°
2026-05-07 19:04 43.41400 16.04606 35541 ft 397 kts 302°
2026-05-07 19:04 43.43143 16.01730 35643 ft 397 kts 302°
2026-05-07 19:05 43.44913 15.98803 35714 ft 398 kts 302°
2026-05-07 19:05 43.48463 15.92922 35873 ft 399 kts 303°
2026-05-07 19:06 43.51995 15.87064 35989 ft 401 kts 303°
2026-05-07 19:06 43.57326 15.78194 36020 ft 402 kts 303°
2026-05-07 19:07 43.60909 15.72220 36015 ft 402 kts 302°
2026-05-07 19:07 43.64465 15.66281 36013 ft 403 kts 303°
2026-05-07 19:08 43.68015 15.60338 36014 ft 404 kts 303°
2026-05-07 19:08 43.71599 15.54324 36019 ft 404 kts 303°
2026-05-07 19:09 43.75160 15.48339 36016 ft 404 kts 303°
2026-05-07 19:09 43.78710 15.42358 36014 ft 404 kts 302°
2026-05-07 19:10 43.82266 15.36355 36015 ft 404 kts 303°
2026-05-07 19:10 43.85817 15.30347 36016 ft 405 kts 302°
2026-05-07 19:11 43.89373 15.24319 36007 ft 405 kts 302°
2026-05-07 19:11 43.92930 15.18277 36007 ft 406 kts 302°
2026-05-07 19:12 43.96625 15.12319 36005 ft 408 kts 304°
2026-05-07 19:12 44.00343 15.06439 36006 ft 408 kts 304°
2026-05-07 19:13 44.04089 15.00501 36000 ft 409 kts 304°
2026-05-07 19:13 44.07844 14.94538 36002 ft 410 kts 304°
2026-05-07 19:14 44.11581 14.88585 35989 ft 410 kts 304°
2026-05-07 19:14 44.15312 14.82629 35993 ft 410 kts 304°
2026-05-07 19:15 44.19067 14.76623 35996 ft 410 kts 304°
2026-05-07 19:15 44.22786 14.70665 35992 ft 410 kts 304°
2026-05-07 19:16 44.26517 14.64672 35992 ft 411 kts 304°
2026-05-07 19:16 44.30258 14.58651 35993 ft 410 kts 304°
2026-05-07 19:17 44.33983 14.52642 35993 ft 410 kts 304°
2026-05-07 19:17 44.37689 14.46652 35991 ft 411 kts 304°
2026-05-07 19:18 44.41424 14.40599 35996 ft 410 kts 304°
2026-05-07 19:18 44.45145 14.34562 35994 ft 410 kts 303°
2026-05-07 19:19 44.48855 14.28524 36002 ft 410 kts 303°
2026-05-07 19:19 44.52569 14.22473 36004 ft 410 kts 303°
2026-05-07 19:20 44.56261 14.16437 36004 ft 410 kts 304°
2026-05-07 19:20 44.59953 14.10392 36010 ft 410 kts 304°
2026-05-07 19:21 44.63662 14.04307 36010 ft 409 kts 304°
2026-05-07 19:21 44.67330 13.98278 36001 ft 409 kts 304°
2026-05-07 19:22 44.71022 13.92195 36005 ft 409 kts 304°
2026-05-07 19:22 44.74712 13.86104 36005 ft 409 kts 304°
2026-05-07 19:23 44.78375 13.80041 35999 ft 410 kts 304°
2026-05-07 19:23 44.82055 13.73941 36002 ft 410 kts 304°
2026-05-07 19:24 44.85744 13.67813 36000 ft 410 kts 304°
2026-05-07 19:24 44.89393 13.61740 36008 ft 410 kts 304°
2026-05-07 19:25 44.93077 13.55588 36000 ft 409 kts 304°
2026-05-07 19:25 44.96721 13.49495 35997 ft 410 kts 304°
2026-05-07 19:26 45.00382 13.43356 35998 ft 409 kts 304°
2026-05-07 19:26 45.04036 13.37222 36004 ft 409 kts 304°
2026-05-07 19:27 45.07702 13.31040 36000 ft 409 kts 304°
2026-05-07 19:27 45.11364 13.24863 36000 ft 410 kts 303°
2026-05-07 19:28 45.15013 13.18694 36000 ft 409 kts 303°
2026-05-07 19:28 45.18637 13.12551 35992 ft 410 kts 304°
2026-05-07 19:29 45.22293 13.06342 35988 ft 410 kts 304°
2026-05-07 19:29 45.25835 13.00079 35991 ft 408 kts 300°
2026-05-07 19:30 45.28939 12.93433 36002 ft 405 kts 296°
2026-05-07 19:30 45.31894 12.86654 35991 ft 404 kts 296°
2026-05-07 19:31 45.34845 12.79855 35995 ft 404 kts 296°
2026-05-07 19:31 45.37787 12.73062 35989 ft 405 kts 296°
2026-05-07 19:32 45.40735 12.66241 35997 ft 406 kts 296°
2026-05-07 19:32 45.43668 12.59436 35987 ft 406 kts 296°
2026-05-07 19:33 45.46617 12.52580 35992 ft 405 kts 296°
2026-05-07 19:33 45.49554 12.45734 36002 ft 406 kts 297°
2026-05-07 19:34 45.52483 12.38890 35990 ft 405 kts 296°
2026-05-07 19:34 45.55420 12.32011 35984 ft 406 kts 296°
2026-05-07 19:35 45.58344 12.25146 35990 ft 406 kts 296°
2026-05-07 19:35 45.61261 12.18283 35993 ft 407 kts 296°
2026-05-07 19:36 45.64174 12.11408 36000 ft 406 kts 296°
2026-05-07 19:36 45.67091 12.04509 35996 ft 407 kts 296°
2026-05-07 19:37 45.70013 11.97581 35994 ft 407 kts 296°
2026-05-07 19:37 45.72928 11.90652 36006 ft 407 kts 296°
2026-05-07 19:38 45.75836 11.83723 36003 ft 407 kts 296°
2026-05-07 19:38 45.78759 11.76742 36000 ft 408 kts 296°
2026-05-07 19:39 45.81656 11.69809 36015 ft 408 kts 296°
2026-05-07 19:39 45.84565 11.62830 36013 ft 408 kts 296°
2026-05-07 19:40 45.87462 11.55856 36023 ft 408 kts 296°
2026-05-07 19:40 45.90361 11.48860 36036 ft 410 kts 296°
2026-05-07 19:41 45.93269 11.41832 36033 ft 410 kts 296°
2026-05-07 19:41 45.96162 11.34815 36026 ft 410 kts 296°
2026-05-07 19:42 45.99066 11.27757 36034 ft 409 kts 296°
2026-05-07 19:42 46.01955 11.20711 36022 ft 409 kts 296°
2026-05-07 19:43 46.04825 11.13668 36023 ft 410 kts 296°
2026-05-07 19:43 46.07669 11.06560 36030 ft 410 kts 296°
2026-05-07 19:44 46.10512 10.99438 36029 ft 411 kts 296°
2026-05-07 19:44 46.13363 10.92285 36010 ft 411 kts 296°
2026-05-07 19:45 46.16196 10.85161 36033 ft 412 kts 296°
2026-05-07 19:45 46.19025 10.78030 36032 ft 412 kts 296°
2026-05-07 19:46 46.21852 10.70886 36040 ft 412 kts 296°
2026-05-07 19:46 46.24674 10.63735 36026 ft 412 kts 296°
2026-05-07 19:47 46.27517 10.56512 36032 ft 412 kts 296°
2026-05-07 19:47 46.30328 10.49351 36043 ft 412 kts 296°
2026-05-07 19:48 46.33141 10.42166 36046 ft 413 kts 296°
2026-05-07 19:48 46.35954 10.34965 36047 ft 413 kts 295°
2026-05-07 19:49 46.38789 10.27686 36057 ft 413 kts 295°
2026-05-07 19:49 46.41614 10.20418 36058 ft 414 kts 295°
2026-05-07 19:50 46.44419 10.13176 36040 ft 414 kts 295°
2026-05-07 19:50 46.47400 10.06059 36032 ft 416 kts 300°
2026-05-07 19:51 46.50909 9.99325 36042 ft 419 kts 306°
2026-05-07 19:51 46.54720 9.92994 36067 ft 419 kts 307°
2026-05-07 19:52 46.58576 9.86644 36066 ft 420 kts 307°
2026-05-07 19:52 46.62420 9.80300 36048 ft 420 kts 307°
2026-05-07 19:53 46.66284 9.73902 36045 ft 420 kts 307°
2026-05-07 19:53 46.70129 9.67520 36044 ft 420 kts 307°
2026-05-07 19:54 46.73957 9.61153 36033 ft 421 kts 307°
2026-05-07 19:54 46.77799 9.54748 36040 ft 420 kts 307°
2026-05-07 19:55 46.81646 9.48320 36049 ft 421 kts 307°
2026-05-07 19:55 46.85488 9.41881 36063 ft 421 kts 307°
2026-05-07 19:56 46.89314 9.35456 36063 ft 421 kts 307°
2026-05-07 19:56 46.93145 9.29009 36055 ft 421 kts 307°
2026-05-07 19:57 46.96980 9.22540 36045 ft 421 kts 307°
2026-05-07 19:57 47.00811 9.16061 36052 ft 421 kts 307°
2026-05-07 19:58 47.04642 9.09568 36042 ft 422 kts 307°
2026-05-07 19:58 47.08476 9.03052 36040 ft 422 kts 307°
2026-05-07 19:59 47.12128 8.96395 36047 ft 420 kts 302°
2026-05-07 19:59 47.15299 8.89167 36064 ft 418 kts 296°
2026-05-07 20:00 47.17881 8.81616 36064 ft 416 kts 291°
2026-05-07 20:00 47.19989 8.73728 36063 ft 416 kts 288°
2026-05-07 20:01 47.22017 8.65780 36069 ft 416 kts 288°
2026-05-07 20:01 47.24039 8.57817 36057 ft 416 kts 288°
2026-05-07 20:02 47.26055 8.49852 36055 ft 416 kts 288°
2026-05-07 20:02 47.28063 8.41893 36039 ft 416 kts 288°
2026-05-07 20:03 47.30055 8.33964 36051 ft 417 kts 288°
2026-05-07 20:03 47.32052 8.25949 36033 ft 417 kts 288°
2026-05-07 20:04 47.34050 8.17901 36046 ft 417 kts 288°
2026-05-07 20:04 47.36028 8.09907 36041 ft 417 kts 288°
2026-05-07 20:05 47.38006 8.01893 36044 ft 417 kts 288°
2026-05-07 20:05 47.39985 7.93844 36025 ft 417 kts 288°
2026-05-07 20:06 47.41954 7.85812 36025 ft 417 kts 288°
2026-05-07 20:06 47.43917 7.77775 36031 ft 418 kts 288°
2026-05-07 20:07 47.45875 7.69703 36022 ft 418 kts 287°
2026-05-07 20:07 47.47490 7.61475 36016 ft 417 kts 282°
2026-05-07 20:08 47.48879 7.53197 36029 ft 417 kts 282°
2026-05-07 20:08 47.50258 7.44914 36030 ft 417 kts 282°
2026-05-07 20:09 47.51634 7.36616 36025 ft 417 kts 282°
2026-05-07 20:10 47.53700 7.24091 36022 ft 418 kts 282°
2026-05-07 20:10 47.55066 7.15765 36027 ft 418 kts 282°
2026-05-07 20:11 47.56429 7.07415 36024 ft 418 kts 282°
2026-05-07 20:11 47.57778 6.99108 36021 ft 418 kts 281°
2026-05-07 20:12 47.59127 6.90746 36026 ft 418 kts 282°
2026-05-07 20:12 47.60469 6.82404 36022 ft 418 kts 282°
2026-05-07 20:13 47.61808 6.74035 36019 ft 418 kts 282°
2026-05-07 20:13 47.63143 6.65662 36017 ft 418 kts 282°
2026-05-07 20:14 47.64472 6.57269 36021 ft 419 kts 281°
2026-05-07 20:14 47.65787 6.48911 36022 ft 419 kts 281°
2026-05-07 20:15 47.67104 6.40519 36025 ft 419 kts 281°
2026-05-07 20:15 47.68419 6.32101 36022 ft 419 kts 281°
2026-05-07 20:16 47.70029 6.23806 36020 ft 419 kts 285°
2026-05-07 20:16 47.71783 6.15555 36022 ft 420 kts 285°
2026-05-07 20:17 47.73538 6.07283 36020 ft 421 kts 285°
2026-05-07 20:17 47.75286 5.99009 36015 ft 421 kts 285°
2026-05-07 20:18 47.77028 5.90722 36014 ft 421 kts 285°
2026-05-07 20:18 47.78762 5.82441 36011 ft 421 kts 285°
2026-05-07 20:19 47.80484 5.74187 36017 ft 421 kts 285°
2026-05-07 20:19 47.82205 5.65900 36018 ft 421 kts 285°
2026-05-07 20:20 47.83934 5.57550 36025 ft 422 kts 285°
2026-05-07 20:20 47.85648 5.49238 36032 ft 421 kts 285°
2026-05-07 20:21 47.87344 5.40970 36027 ft 420 kts 285°
2026-05-07 20:21 47.89211 5.32858 36028 ft 422 kts 290°
2026-05-07 20:22 47.91809 5.25009 36029 ft 425 kts 297°
2026-05-07 20:22 47.95112 5.17714 36027 ft 428 kts 304°
2026-05-07 20:23 47.99021 5.10975 36033 ft 430 kts 308°
2026-05-07 20:23 48.03007 5.04418 36035 ft 430 kts 309°
2026-05-07 20:24 48.07025 4.97789 36038 ft 431 kts 308°
2026-05-07 20:24 48.11042 4.91136 36037 ft 431 kts 309°
2026-05-07 20:25 48.15050 4.84477 36037 ft 430 kts 309°
2026-05-07 20:25 48.19032 4.77848 36037 ft 430 kts 309°
2026-05-07 20:26 48.23026 4.71182 36035 ft 430 kts 309°
2026-05-07 20:26 48.27021 4.64491 36036 ft 431 kts 309°
2026-05-07 20:27 48.30998 4.57802 36037 ft 432 kts 309°
2026-05-07 20:27 48.34982 4.51080 36034 ft 432 kts 309°
2026-05-07 20:28 48.38955 4.44364 36034 ft 433 kts 309°
2026-05-07 20:28 48.42932 4.37623 36035 ft 432 kts 309°
2026-05-07 20:29 48.46989 4.30869 36034 ft 433 kts 310°
2026-05-07 20:29 48.51146 4.24379 36034 ft 433 kts 310°
2026-05-07 20:30 48.55338 4.17837 36033 ft 433 kts 310°
2026-05-07 20:30 48.59483 4.11322 36033 ft 434 kts 310°
2026-05-07 20:31 48.63661 4.04732 36032 ft 435 kts 310°
2026-05-07 20:31 48.67819 3.98151 36033 ft 435 kts 310°
2026-05-07 20:32 48.71996 3.91521 36030 ft 435 kts 310°
2026-05-07 20:32 48.76152 3.84910 36034 ft 435 kts 310°
2026-05-07 20:33 48.80300 3.78291 36029 ft 434 kts 310°
2026-05-07 20:33 48.84442 3.71668 36029 ft 435 kts 310°
2026-05-07 20:34 48.88580 3.65031 36029 ft 435 kts 310°
2026-05-07 20:34 48.92742 3.58338 36028 ft 436 kts 310°
2026-05-07 20:35 48.96893 3.51648 36029 ft 436 kts 310°
2026-05-07 20:35 49.01035 3.44955 36028 ft 437 kts 311°
2026-05-07 20:36 49.05194 3.38223 36028 ft 437 kts 311°
2026-05-07 20:36 49.09341 3.31491 36029 ft 436 kts 310°
2026-05-07 20:37 49.13502 3.24716 36030 ft 436 kts 310°
2026-05-07 20:37 49.17617 3.17994 36031 ft 436 kts 310°
2026-05-07 20:38 49.21775 3.11185 36032 ft 437 kts 310°
2026-05-07 20:38 49.25906 3.04408 36034 ft 437 kts 310°
2026-05-07 20:39 49.30013 2.97651 36034 ft 437 kts 310°
2026-05-07 20:39 49.34163 2.90801 36033 ft 437 kts 310°
2026-05-07 20:40 49.38262 2.84020 36031 ft 437 kts 310°
2026-05-07 20:40 49.42389 2.77174 36025 ft 438 kts 310°
2026-05-07 20:41 49.46521 2.70300 36031 ft 439 kts 310°
2026-05-07 20:41 49.50630 2.63444 36031 ft 438 kts 310°
2026-05-07 20:42 49.54781 2.56492 36027 ft 444 kts 310°
2026-05-07 20:42 49.58956 2.49483 36030 ft 449 kts 310°
2026-05-07 20:43 49.63153 2.42424 36029 ft 449 kts 310°
2026-05-07 20:43 49.67379 2.35301 36028 ft 450 kts 310°
2026-05-07 20:44 49.71574 2.28208 36027 ft 450 kts 309°
2026-05-07 20:44 49.75786 2.21066 36033 ft 451 kts 309°
2026-05-07 20:45 49.79984 2.13929 35793 ft 451 kts 309°
2026-05-07 20:45 49.82107 2.10314 35637 ft 450 kts 309°
2026-05-07 20:45 49.84180 2.06777 35489 ft 450 kts 309°
2026-05-07 20:45 49.86289 2.03174 35329 ft 449 kts 309°
2026-05-07 20:46 49.88370 1.99615 35162 ft 449 kts 309°
2026-05-07 20:46 49.90469 1.96018 34978 ft 448 kts 309°
2026-05-07 20:46 49.92555 1.92439 34730 ft 449 kts 309°
2026-05-07 20:46 49.94649 1.88841 34468 ft 450 kts 309°
2026-05-07 20:47 49.96736 1.85252 34206 ft 451 kts 310°
2026-05-07 20:47 49.98833 1.81641 34042 ft 452 kts 310°
2026-05-07 20:47 50.00919 1.78047 34034 ft 453 kts 309°
2026-05-07 20:48 50.05145 1.70740 34033 ft 454 kts 310°
2026-05-07 20:48 50.09633 1.63892 34034 ft 456 kts 316°
2026-05-07 20:49 50.14416 1.57389 34034 ft 456 kts 317°
2026-05-07 20:49 50.19188 1.50926 33762 ft 454 kts 317°
2026-05-07 20:49 50.21554 1.47711 33868 ft 448 kts 317°
2026-05-07 20:50 50.23914 1.44500 33573 ft 444 kts 317°
2026-05-07 20:50 50.26216 1.41358 32998 ft 442 kts 316°
2026-05-07 20:50 50.28514 1.38216 32457 ft 438 kts 316°
2026-05-07 20:50 50.30807 1.35076 31933 ft 434 kts 316°
2026-05-07 20:51 50.33056 1.31992 31345 ft 429 kts 316°
2026-05-07 20:51 50.35284 1.28933 30719 ft 426 kts 316°
2026-05-07 20:51 50.37516 1.25864 30132 ft 422 kts 316°
2026-05-07 20:51 50.39724 1.22824 29550 ft 418 kts 315°
2026-05-07 20:52 50.41888 1.19841 28964 ft 414 kts 315°
2026-05-07 20:52 50.44036 1.16876 28360 ft 411 kts 315°
2026-05-07 20:52 50.46170 1.13925 27753 ft 407 kts 316°
2026-05-07 20:52 50.48277 1.11007 27150 ft 404 kts 316°
2026-05-07 20:53 50.50359 1.08120 26545 ft 400 kts 315°
2026-05-07 20:53 50.52361 1.05085 25935 ft 396 kts 311°
2026-05-07 20:53 50.54245 1.01955 25324 ft 392 kts 310°
2026-05-07 20:53 50.56075 0.98863 24729 ft 389 kts 310°
2026-05-07 20:54 50.57917 0.95742 24133 ft 385 kts 310°
2026-05-07 20:54 50.59706 0.92715 23492 ft 377 kts 310°
2026-05-07 20:54 50.61468 0.89734 22528 ft 374 kts 310°
2026-05-07 20:54 50.63214 0.86778 21500 ft 370 kts 310°
2026-05-07 20:55 50.64939 0.83855 20485 ft 364 kts 310°
2026-05-07 20:55 50.66642 0.80964 19474 ft 359 kts 310°
2026-05-07 20:55 50.68259 0.78041 18475 ft 352 kts 307°
2026-05-07 20:55 50.69783 0.75080 17483 ft 347 kts 307°
2026-05-07 20:56 50.71269 0.72156 16507 ft 342 kts 307°
2026-05-07 20:56 50.72740 0.69258 15522 ft 337 kts 307°
2026-05-07 20:56 50.74180 0.66427 14560 ft 333 kts 307°
2026-05-07 20:56 50.75608 0.63620 13599 ft 328 kts 307°
2026-05-07 20:57 50.77024 0.60837 12901 ft 324 kts 307°
2026-05-07 20:57 50.78426 0.58078 12393 ft 325 kts 307°
2026-05-07 20:57 50.79846 0.55280 11938 ft 322 kts 307°
2026-05-07 20:57 50.81241 0.52533 11577 ft 314 kts 307°
2026-05-07 20:58 50.82595 0.49861 11167 ft 311 kts 307°
2026-05-07 20:58 50.83949 0.47186 10617 ft 313 kts 307°
2026-05-07 20:58 50.85291 0.44534 10212 ft 309 kts 307°
2026-05-07 20:58 50.86612 0.41878 9780 ft 307 kts 303°
2026-05-07 20:59 50.87505 0.38863 9342 ft 303 kts 286°
2026-05-07 20:59 50.88039 0.35644 8908 ft 301 kts 282°
2026-05-07 20:59 50.88502 0.32426 8474 ft 300 kts 281°
2026-05-07 20:59 50.88952 0.29196 8120 ft 297 kts 281°
2026-05-07 21:00 50.89393 0.26001 7869 ft 298 kts 281°
2026-05-07 21:00 50.89824 0.22851 7619 ft 297 kts 281°
2026-05-07 21:00 50.90261 0.19642 7365 ft 297 kts 281°
2026-05-07 21:00 50.90698 0.16423 7128 ft 295 kts 281°
2026-05-07 21:01 50.91124 0.13269 7077 ft 296 kts 281°
2026-05-07 21:01 50.91555 0.10074 7074 ft 296 kts 281°
2026-05-07 21:01 50.91980 0.06913 7072 ft 297 kts 281°
2026-05-07 21:01 50.92413 0.03695 7072 ft 297 kts 281°
2026-05-07 21:02 50.92841 0.00507 7072 ft 297 kts 281°
2026-05-07 21:02 50.93269 -0.02690 7070 ft 297 kts 281°
2026-05-07 21:02 50.93700 -0.05902 7070 ft 297 kts 281°
2026-05-07 21:02 50.94124 -0.09076 7070 ft 297 kts 281°
2026-05-07 21:03 50.94556 -0.12305 7069 ft 297 kts 281°
2026-05-07 21:03 50.94981 -0.15496 7068 ft 296 kts 281°
2026-05-07 21:03 50.95407 -0.18717 7068 ft 296 kts 281°
2026-05-07 21:03 50.95821 -0.21870 7068 ft 295 kts 281°
2026-05-07 21:04 50.96233 -0.25018 7061 ft 284 kts 281°
2026-05-07 21:04 50.96624 -0.28015 7060 ft 267 kts 281°
2026-05-07 21:04 50.96988 -0.30793 7058 ft 252 kts 281°
2026-05-07 21:04 50.97337 -0.33443 6914 ft 244 kts 281°
2026-05-07 21:05 50.97687 -0.36117 6492 ft 248 kts 281°
2026-05-07 21:05 50.98032 -0.38751 6071 ft 246 kts 281°
2026-05-07 21:05 50.98377 -0.41380 5622 ft 242 kts 281°
2026-05-07 21:05 50.98711 -0.43925 5343 ft 235 kts 281°
2026-05-07 21:06 50.99202 -0.46360 5068 ft 231 kts 302°
2026-05-07 21:06 51.00357 -0.48065 4890 ft 224 kts 332°
2026-05-07 21:06 51.01754 -0.49013 4740 ft 217 kts 340°
2026-05-07 21:06 51.03143 -0.49788 4588 ft 210 kts 341°
2026-05-07 21:07 51.04512 -0.50527 4435 ft 202 kts 341°
2026-05-07 21:07 51.05836 -0.51236 4249 ft 196 kts 344°
2026-05-07 21:07 51.07155 -0.51303 3879 ft 195 kts 18°
2026-05-07 21:07 51.08268 -0.50114 3509 ft 193 kts 46°
2026-05-07 21:08 51.09171 -0.48533 3148 ft 194 kts 51°
2026-05-07 21:08 51.10024 -0.46953 3010 ft 186 kts 51°
2026-05-07 21:08 51.10818 -0.45313 3012 ft 186 kts 62°
2026-05-07 21:08 51.11337 -0.43448 3013 ft 184 kts 73°
2026-05-07 21:09 51.11708 -0.41502 2859 ft 181 kts 77°
2026-05-07 21:09 51.12005 -0.39645 2607 ft 168 kts 79°
2026-05-07 21:09 51.12255 -0.37886 2367 ft 157 kts 80°
2026-05-07 21:09 51.12474 -0.36258 2201 ft 155 kts 81°
2026-05-07 21:10 51.12701 -0.34548 2000 ft 158 kts 80°
2026-05-07 21:10 51.12932 -0.32830 1777 ft 157 kts 80°
2026-05-07 21:10 51.13154 -0.31202 1542 ft 144 kts 80°
2026-05-07 21:10 51.13354 -0.29733 1332 ft 132 kts 80°
2026-05-07 21:11 51.13548 -0.28304 1168 ft 131 kts 80°
2026-05-07 21:11 51.13740 -0.26887 1004 ft 131 kts 79°
2026-05-07 21:11 51.14129 -0.24044 655 ft 131 kts 79°
2026-05-07 21:12 51.14321 -0.22637 478 ft 131 kts 79°
2026-05-07 21:12 51.14516 -0.21216 297 ft 130 kts 79°
2026-05-07 21:12 51.14704 -0.19827 199 ft 114 kts 78°
2026-05-07 21:12 51.14810 -0.19055 199 ft 39 kts 76°
2026-05-07 21:13 51.14875 -0.18658 199 ft 34 kts 64°